Theta_e
310 311 309 306 301 305 297 296 296 298 305 314 320 319 321 322 323 325 331 333 335 336 337 339 340 342 343 344 342 345 346 347
310 310 310 306 308 300 295 292 291 297 302 303 313 316 319 320 321 324 329 332 335 336 337 339 340 341 344 346 347 348 350 350
305 303 304 302 301 299 298 296 293 292 297 308 316 318 318 321 323 324 326 329 332 335 337 339 340 340 340 345 347 348 350 351
297 305 309 305 304 300 295 294 295 295 298 312 315 316 320 321 324 325 327 328 332 334 335 337 337 338 340 345 347 348 350 350
295 299 302 302 302 300 298 297 295 294 298 310 311 315 321 321 322 325 327 328 330 332 333 335 336 337 339 344 346 348 350 349
292 297 301 300 303 303 299 294 295 298 301 307 311 313 313 321 323 323 326 327 328 330 332 335 336 336 338 343 347 349 350 349
300 302 303 303 304 304 299 298 298 301 301 306 309 313 316 318 322 323 323 325 327 328 332 334 335 336 337 339 346 349 350 350
298 303 303 303 305 306 304 302 302 302 303 308 313 315 318 321 322 322 323 324 327 329 331 333 335 336 337 339 347 350 350 349
295 301 300 297 302 305 305 306 305 300 303 309 315 317 319 319 323 324 327 326 326 328 332 334 336 338 339 346 351 352 349 347
296 295 290 300 306 307 308 308 304 305 306 312 315 320 319 322 323 331 338 338 335 336 338 342 343 344 350 352 350 348 345 343
294 295 296 301 306 304 302 304 306 307 310 315 317 316 317 327 327 335 338 341 343 344 346 348 350 352 349 346 345 344 342 340
293 293 292 300 307 311 307 299 309 307 309 312 312 308 312 324 328 335 339 341 342 345 348 350 349 348 345 343 342 340 339 336
295 295 296 304 310 310 298 300 308 309 308 308 309 311 314 323 330 335 339 342 346 347 347 348 347 346 342 341 339 339 335 333
294 293 294 310 308 304 306 306 310 309 310 312 315 319 319 330 335 341 343 344 346 346 347 346 346 344 341 339 337 334 333 331
299 298 305 307 311 310 308 310 310 310 311 317 324 328 334 336 339 342 344 345 348 347 345 345 344 343 338 333 333 331 329 327
302 303 305 312 312 313 315 317 318 313 317 316 320 335 337 339 341 343 346 347 347 345 343 341 341 339 332 331 331 329 325 324
302 304 307 312 315 315 316 320 320 318 319 320 327 338 340 340 342 345 346 346 346 344 341 338 333 330 330 330 329 325 325 323
298 305 305 307 313 323 319 318 320 320 321 328 332 340 341 342 345 345 344 343 342 341 336 330 329 328 328 329 328 325 322 320
314 312 309 313 319 325 323 322 326 322 322 334 338 343 343 343 344 338 342 341 339 335 330 329 328 326 327 327 327 323 321 314
Wind_Speed
13 12 10 8 3 9 7 2 3 4 7 7 17 20 20 20 19 20 21 20 21 20 19 18 18 18 18 15 15 13 14 11
7 7 9 10 6 4 3 4 2 5 6 4 10 20 20 20 23 21 20 20 19 19 20 18 17 15 14 15 16 13 13 11
4 8 15 1 3 4 8 6 7 2 8 9 18 18 23 24 25 22 23 22 20 20 18 18 16 15 15 14 15 13 13 12
12 4 10 10 12 8 7 5 2 6 8 6 14 16 19 23 23 23 24 23 20 19 18 18 19 17 17 16 16 15 15 13
6 7 4 7 6 6 6 5 6 5 9 3 8 15 22 23 22 22 22 20 17 15 17 17 17 17 16 16 17 15 14 13
11 8 5 4 7 7 9 5 6 7 10 13 6 12 10 20 24 21 21 21 19 16 17 17 17 17 16 15 15 13 12 11
21 15 6 5 9 9 8 8 9 9 8 12 6 11 16 19 19 19 19 18 19 19 17 16 15 14 14 12 13 13 12 12
16 11 5 11 10 17 13 7 8 8 8 8 6 1 8 16 20 19 19 21 22 21 15 16 17 15 14 12 13 13 12 11
16 15 10 7 8 14 13 13 13 11 14 5 6 9 15 10 13 20 21 20 19 18 17 16 17 16 15 12 12 12 12 13
12 6 13 10 8 10 21 21 9 7 8 10 12 12 8 7 12 12 14 16 15 14 12 10 10 11 11 12 13 14 14 13
10 13 3 5 6 7 10 15 9 12 8 9 10 4 5 12 10 18 16 16 17 17 15 12 14 14 15 13 14 15 14 13
5 15 16 9 6 5 7 5 5 10 10 11 6 5 8 9 8 12 13 14 13 12 14 15 14 15 16 14 14 14 13 13
6 10 6 8 10 6 8 11 5 8 11 7 8 10 10 8 8 6 11 12 13 15 15 14 14 16 15 14 13 11 13 13
3 6 6 9 7 16 12 6 5 4 8 10 9 7 8 12 14 15 16 14 13 14 13 13 15 17 15 13 12 14 14 13
9 8 8 4 9 5 5 6 6 4 5 10 10 8 8 10 16 15 17 14 12 15 16 12 12 17 17 13 15 16 15 12
6 3 4 10 6 5 3 4 7 8 9 10 10 10 9 10 11 14 15 16 15 17 16 14 12 11 19 17 16 15 15 13
1 2 9 7 7 3 5 5 4 7 6 11 15 9 14 12 13 14 14 14 15 16 16 15 13 14 17 18 17 14 14 11
6 7 7 3 2 5 8 2 4 7 4 2 11 16 12 13 13 15 16 15 14 14 15 14 14 15 16 15 16 16 13 10
7 8 1 7 5 5 3 6 4 7 7 9 6 16 15 15 13 14 14 14 15 16 16 16 16 15 14 14 16 15 14 10
Wind_Direction
220 228 141 229 189 198 134 34 52 245 300 336 165 178 183 183 182 184 183 187 187 190 192 190 192 194 194 190 199 196 199 201
255 186 225 160 217 234 19 132 222 313 298 206 176 179 184 180 190 190 187 187 190 190 193 196 198 194 187 188 192 193 194 199
253 197 219 160 221 37 116 133 161 204 272 201 185 187 180 188 191 185 187 190 190 193 194 191 191 189 189 185 186 189 192 197
228 242 199 179 199 165 125 232 150 162 261 267 176 180 197 190 191 189 190 190 191 194 189 186 191 187 189 186 189 192 193 193
329 309 288 185 188 149 116 95 186 148 259 124 233 186 194 184 192 191 192 190 191 187 190 194 194 192 191 189 195 192 187 188
200 222 156 174 194 167 135 133 164 209 271 292 258 188 171 189 188 188 189 188 188 191 195 192 195 192 188 190 192 186 181 177
223 235 238 209 187 189 167 175 157 236 211 260 235 205 174 184 183 185 186 187 190 195 194 192 189 193 192 184 184 177 173 171
221 224 211 223 235 203 195 161 198 160 234 215 281 222 130 168 176 180 184 188 192 197 186 187 186 187 184 176 177 169 165 148
216 213 238 259 213 222 213 202 182 207 221 154 193 267 165 174 168 178 185 186 188 186 182 182 185 179 180 166 154 153 140 137
203 97 225 241 205 218 219 211 198 200 197 183 210 199 197 182 162 164 166 174 182 175 172 170 160 156 137 139 138 137 136 135
166 199 266 217 221 177 164 232 206 199 194 204 193 73 255 173 175 172 174 173 171 171 158 140 143 138 130 128 131 132 137 136
143 210 209 215 207 147 88 277 250 206 181 194 141 137 246 193 161 180 162 156 146 140 138 132 139 134 129 132 132 136 139 138
171 204 268 229 162 120 123 233 282 203 177 174 171 188 210 150 118 164 144 137 136 140 143 137 135 130 127 132 138 134 128 126
99 129 211 166 92 181 207 251 250 289 158 165 177 159 171 145 134 135 130 135 141 133 135 140 141 131 134 138 135 131 128 129
162 204 230 114 139 153 140 185 210 202 185 150 139 139 151 135 136 141 142 142 143 140 136 142 150 146 135 139 135 133 131 133
97 308 121 103 95 111 117 221 203 191 159 166 155 146 134 124 128 137 145 146 144 141 142 145 151 150 131 138 139 138 135 134
60 274 98 49 95 96 70 357 95 142 196 156 145 155 147 146 146 148 146 146 148 147 147 144 138 137 137 140 139 136 133 134
275 254 128 163 109 79 74 57 95 107 102 116 140 150 147 150 151 148 148 144 140 142 134 139 137 141 140 142 141 137 139 139
273 270 264 132 58 24 57 159 166 150 157 131 124 142 151 146 150 142 140 140 146 145 138 139 138 143 143 146 141 144 145 140